User: anonymous   Login
Location: Prairie State College
(41.5244°N, 87.6382°W)
Time: 08:13:28
(UTC-05:00)
Language:

ARGOS Delta rocket - Orbit

View from above orbital plane
View from above orbital plane
View from above satellite
View from above satellite

Ground track
Ground track

The orbit data is extracted from the following two-line orbital elements,

1 25637U 99008D   16237.01952832  .00000049  00000-0  19421-4 0  9992
2 25637  96.4620 200.6306 0143697 145.6725 266.7020 14.46450318922652
Epoch (UTC): 24 August 2016 00:28:07
Eccentricity: 0.0143697
inclination: 96.4620°
perigee height: 635 km
apogee height: 839 km
right ascension of ascending node: 200.6306°
argument of perigee: 145.6725°
revolutions per day: 14.46450318
mean anomaly at epoch: 266.7020°
orbit number at epoch: 92265

The dashed part of the orbit path shows where the satellite is in the earth's shadow,  

DLR